Location: Coopersdale
(40.3556°N, 78.9372°W)
Time: 14:34:54
(UTC+00:00)

A-11 Canister half - All Passes

Search period start: 23 January 2021 00:00
Search period end: 02 February 2021 00:00
Orbit: 1517 x 1683 km, 47.2° (Epoch: 22 January)

Date Brightness Start Highest point End Pass type
(mag) Time Alt. Az. Time Alt. Az. Time Alt. Az.
23 Jan - 01:37:54 10° SW 01:47:20 73° SE 01:56:33 10° ENE visible
23 Jan - 03:43:17 10° W 03:52:32 62° NNW 04:01:43 10° ENE visible
23 Jan - 05:49:20 10° WNW 05:58:31 62° NNE 06:07:44 10° E night (unlit)
23 Jan - 07:54:31 10° WNW 08:03:44 72° SW 08:13:03 10° SE visible
23 Jan - 10:00:46 10° W 10:07:27 23° SW 10:14:15 10° S visible
23 Jan - 23:14:06 10° S 23:20:44 21° SE 23:27:14 10° E visible
24 Jan - 01:15:01 10° SW 01:24:27 69° SE 01:33:39 10° ENE visible
24 Jan - 03:20:17 10° W 03:29:35 63° NNW 03:38:46 10° ENE visible
24 Jan - 05:26:22 10° WNW 05:35:34 61° NNE 05:44:45 10° E night (unlit)
24 Jan - 07:31:36 10° WNW 07:40:50 76° SSW 07:50:11 10° SE visible
24 Jan - 09:37:40 10° W 09:44:38 24° SW 09:51:43 10° S visible
24 Jan - 22:51:39 10° SSE 22:57:56 20° SE 23:04:05 10° E visible
25 Jan - 00:52:09 10° SW 01:01:34 66° SE 01:10:44 10° ENE visible
25 Jan - 02:57:17 10° W 03:06:38 64° NNW 03:15:51 10° ENE visible
25 Jan - 05:03:26 10° WNW 05:12:37 60° N 05:21:46 10° E night (unlit)
25 Jan - 07:08:42 10° WNW 07:17:57 79° SSW 07:27:18 10° SE visible
25 Jan - 09:14:36 10° WNW 09:21:49 26° SW 09:29:10 10° S visible
25 Jan - 22:29:14 10° SSE 22:35:07 18° SE 22:40:53 10° E daylight
26 Jan - 00:29:18 10° SW 00:38:40 63° SE 00:47:49 10° ENE visible
26 Jan - 02:34:18 10° W 02:43:41 66° NNW 02:52:55 10° ENE visible
26 Jan - 04:40:28 10° WNW 04:49:39 59° N 04:58:47 10° E visible
26 Jan - 06:45:47 10° WNW 06:55:03 82° SSW 07:04:24 10° SE night (unlit)
26 Jan - 08:51:33 10° WNW 08:59:00 28° SW 09:06:35 10° S visible
26 Jan - 22:06:54 10° SSE 22:12:18 16° SE 22:17:36 10° E daylight
27 Jan - 00:06:27 10° SW 00:15:48 60° SE 00:24:54 10° ENE visible
27 Jan - 02:11:18 10° W 02:20:44 68° NNW 02:29:59 10° ENE visible
27 Jan - 04:17:30 10° WNW 04:26:41 58° N 04:35:49 10° E visible
27 Jan - 06:22:51 10° WNW 06:32:09 86° SSW 06:41:30 10° ESE night (unlit)
27 Jan - 08:28:31 10° WNW 08:36:11 30° SW 08:43:58 10° S visible
27 Jan - 21:44:39 10° SSE 21:49:30 15° SE 21:54:16 10° E daylight
27 Jan - 23:43:38 10° SW 23:52:56 56° SE 00:01:58 10° ENE visible
28 Jan - 01:48:19 10° WSW 01:57:48 70° NNW 02:07:04 10° ENE visible
28 Jan - 03:54:31 10° WNW 04:03:43 58° N 04:12:50 10° E visible
28 Jan - 05:59:56 10° WNW 06:09:15 89° SSW 06:18:36 10° ESE night (unlit)
28 Jan - 08:05:30 10° WNW 08:13:21 33° SW 08:21:19 10° S visible
28 Jan - 21:22:31 10° SSE 21:26:41 14° ESE 21:30:49 10° E daylight
28 Jan - 23:20:48 10° SSW 23:30:03 53° SE 23:39:03 10° ENE visible
29 Jan - 01:25:20 10° WSW 01:34:51 71° NNW 01:44:09 10° ENE visible
29 Jan - 03:31:32 10° WNW 03:40:45 57° N 03:49:51 10° E visible
29 Jan - 05:37:01 10° WNW 05:46:22 88° NNE 05:55:41 10° ESE night (unlit)
29 Jan - 07:42:30 10° WNW 07:50:32 35° SW 07:58:39 10° SSE night (unlit)
29 Jan - 21:00:33 10° SE 21:03:53 12° ESE 21:07:10 10° ESE daylight
29 Jan - 22:57:59 10° SSW 23:07:11 51° SE 23:16:07 10° ENE visible
30 Jan - 01:02:20 10° WSW 01:11:54 74° NNW 01:21:13 10° ENE visible
30 Jan - 03:08:33 10° WNW 03:17:47 57° N 03:26:53 10° E visible
30 Jan - 05:14:05 10° WNW 05:23:27 85° NNE 05:32:46 10° ESE night (unlit)
30 Jan - 07:19:30 10° WNW 07:27:42 37° SW 07:35:59 10° SSE night (unlit)
30 Jan - 20:39:02 10° SE 20:41:05 11° ESE 20:43:07 10° ESE daylight
30 Jan - 22:35:12 10° SSW 22:44:20 48° SE 22:53:11 10° ENE daylight
31 Jan - 00:39:21 10° WSW 00:48:57 76° NNW 00:58:19 10° ENE visible
31 Jan - 02:45:34 10° WNW 02:54:49 57° N 03:03:54 10° E visible
31 Jan - 04:51:10 10° WNW 05:00:32 82° NNE 05:09:50 10° ESE visible
31 Jan - 06:56:31 10° WNW 07:04:53 40° SW 07:13:16 10° SSE night (unlit)
31 Jan - 22:12:25 10° SSW 22:21:28 45° SE 22:30:14 10° ENE daylight
01 Feb - 00:16:22 10° WSW 00:26:01 78° NNW 00:35:24 10° ENE visible
01 Feb - 02:22:34 10° WNW 02:31:51 57° N 02:40:57 10° ENE visible
01 Feb - 04:28:14 10° WNW 04:37:37 80° NNE 04:46:54 10° ESE visible
01 Feb - 06:33:32 10° WNW 06:42:02 42° SW 06:50:33 10° SSE night (unlit)
01 Feb - 21:49:39 10° SSW 21:58:36 42° SE 22:07:17 10° ENE daylight
